Star One C2

operational
NORAD ID: 32768 Int'l Des: 2008-018 Owner: STONE Country: BR
HEOCIRCULARGSO

About Star One C2

Description loading...

Live Position

Loading 3D Globe...

Upcoming Passes

Altitude History

Altitude vs Time

uPlot chart will show altitude changes over time

Two-Line Element Set

1 32768U 08018B 25346.54884755 -.00000266 00000-0 00000-0 0 9994
2 32768 0.7647 84.0352 0002838 189.7153 300.3480 1.00281112 64788
Epoch: Dec 12, 2025 • Age: 42 hours

Current Status

Altitude 35793.7 km
Velocity 3.07 km/s
Sub-Earth Point 0.53°N, 64.95°W
Launch Date Apr 18, 2008
Age 17.6 years
Type other

Technical Details

Classification Payload
Mass 4100.00 kg
Dry Mass 1750.00 kg
Total Mass 4100.00 kg
Length 4.00 m
Diameter 2.40 m
Span 22.40 m
Shape Box + 2 Pan
Manufacturer THALA
Bus Type Spacebus 3000B3
Phase Status In Orbit
Owner/State STONE/BR

Large Constellations

Loading constellations...